sat.trackr.live / text

‹ back to catalog

ARABSAT-6A

NORAD 44186 · 2019-021A

PAYLOAD ACTIVE UNKNOWN

§ Identity

Operator
Country
AB
Launch date
2019-04-11
Launch site
AFETR
Launch vehicle
Mass (kg)
RCS (m²)

Purposes: comms

External: N2YO · Heavens-Above · Gunter

§ Orbital elements

Epoch: 2026-09-20T03:22:49.774368Z

Period
1,436.06 min
Inclination
0.0190°
Eccentricity
0.0004649
Mean motion
1.00274330 rev/d
Perigee alt
35,766.3 km
Apogee alt
35,805.5 km
Semi-major
42,164.0 km
B*
0.0000e+0
RAAN
15.4922°
Arg perigee
241.5362°
Mean anomaly
183.2380°
Rev number
2,710

§ Raw data

ARABSAT-6A1 44186U 19021A   26263.14085387  .00000000  00000+0  00000+0 0  99992 44186   0.0190  15.4922 0004649 241.5362 183.2380  1.00274330 27109

JSON: /api/v1/satellites/44186 · /tle

For live sub-satellite position, see the globe view (requires WebGL).

§ Visibility from observer

Set your observer location to see the next 7 days of passes ≥ 10°. The values pass through the URL so the page stays shareable.

No JS? Fill the form by hand. The geolocation button needs JavaScript.